Location: *
(42.5628°N, 2.3633°E)
Time: 08:58:54
(UTC+00:00)

CZ-2C R/B - Pass Details

Date: 30 March 2020
Orbit: 639 x 705 km, 98.4° (Epoch: 03 June)

Event Time Altitude Azimuth Distance (km) Brightness Sun altitude
Rises 19:43:44 0° 14° (NNE) 3,102 7.3 -16.7°
Reaches altitude 10° 19:46:01 10° 16° (NNE) 2,174 6.4 -17.1°
Maximum altitude 19:50:47 80° 103° (ESE) 710 3.7 -17.9°
Drops below altitude 10° 19:55:28 10° 191° (S) 2,127 6.2 -18.6°
Sets 19:57:40 0° 192° (SSW) 3,028 7.0 -19.0°
